Volver al catálogo

STARLINK-37889

ActivoComunicacionesVLEO
NORAD 69536·PAYLOAD·🇺🇸 United States

Lanzado Jun 12, 2026 desde Cape Canaveral Space Force Station

Loading…

Próximos Pases (próximas 24 horas)

TLE

ActualizadoSource: CelesTrak SupGP

Época: Sep 15, 2026, 04:32 UTC

1 69536C 26133AE  26258.18937500 -.00040703  00000+0 -12026-2 0  2586
2 69536  53.1565 254.4689 0001204  86.1830 138.1001 15.34410151    17

Sigue STARLINK-37889 en tiempo real con AllMySat

Download on the App Store